TimeMDT,TemperatureF,Dew PointF,Humidity,Sea Level PressureIn,VisibilityMPH,Wind Direction,Wind SpeedMPH,Gust SpeedMPH,PrecipitationIn,Events,Conditions,WindDirDegrees,DateUTC
12:53 AM,37.9,26.1,62,30.05,10.0,SW,5.8,-,N/A,,Clear,220,2011-10-23 06:53:00
1:53 AM,39.0,27.0,62,30.04,10.0,SSW,9.2,-,N/A,,Clear,200,2011-10-23 07:53:00
2:53 AM,37.0,26.1,65,30.04,10.0,SSW,9.2,-,N/A,,Clear,210,2011-10-23 08:53:00
3:53 AM,37.9,27.0,65,30.02,10.0,SSW,9.2,-,N/A,,Clear,210,2011-10-23 09:53:00
4:53 AM,39.0,27.0,62,30.03,10.0,SW,8.1,-,N/A,,Clear,230,2011-10-23 10:53:00
5:53 AM,36.0,25.0,64,30.07,10.0,SW,6.9,-,N/A,,Clear,230,2011-10-23 11:53:00
6:53 AM,34.0,25.0,70,30.09,10.0,SW,6.9,-,N/A,,Clear,220,2011-10-23 12:53:00
8:53 AM,48.0,27.0,44,30.13,10.0,West,8.1,-,N/A,,Clear,270,2011-10-23 14:53:00
9:53 AM,54.0,28.9,38,30.13,10.0,West,10.4,-,N/A,,Clear,270,2011-10-23 15:53:00
10:53 AM,61.0,28.9,30,30.11,10.0,West,6.9,-,N/A,,Clear,280,2011-10-23 16:53:00
11:53 AM,69.1,30.0,23,30.10,10.0,WNW,6.9,-,N/A,,Clear,290,2011-10-23 17:53:00
12:53 PM,73.0,28.0,19,30.05,10.0,Variable,3.5,-,N/A,,Clear,0,2011-10-23 18:53:00
1:53 PM,75.9,27.0,16,30.02,10.0,North,8.1,-,N/A,,Clear,10,2011-10-23 19:53:00
2:53 PM,78.1,25.0,14,30.01,10.0,NNW,6.9,-,N/A,,Clear,340,2011-10-23 20:53:00
3:53 PM,77.0,25.0,15,30.00,10.0,Calm,Calm,-,N/A,,Clear,0,2011-10-23 21:53:00
4:53 PM,75.9,25.0,15,30.00,10.0,Calm,Calm,-,N/A,,Clear,0,2011-10-23 22:53:00
5:53 PM,66.9,25.0,21,30.03,10.0,ESE,6.9,-,N/A,,Clear,110,2011-10-23 23:53:00
6:53 PM,62.1,24.1,23,30.06,10.0,SE,11.5,-,N/A,,Clear,140,2011-10-24 00:53:00
7:53 PM,60.1,25.0,26,30.06,10.0,SE,12.7,-,N/A,,Clear,140,2011-10-24 01:53:00
8:53 PM,48.0,21.9,36,30.09,10.0,WSW,3.5,-,N/A,,Clear,240,2011-10-24 02:53:00
9:53 PM,48.9,23.0,36,30.08,10.0,Calm,Calm,-,N/A,,Clear,0,2011-10-24 03:53:00
11:53 PM,53.1,27.0,37,30.03,10.0,South,9.2,-,N/A,,Clear,170,2011-10-24 05:53:00